• In Moldova, Republic
  • List of Countries
  • For 7 days
  • Water Temperature
  • Satellite Maps
  • Weather Map
  • Weather Widgets
  • user-avatar
    Login

    Hourly Weather Durres

    Today, 21 July, Friday

    Time Temperature Precipitation Wind Pressure Humidity
    00:00 +25°C° 0 mm 1 mps 759 mmHg 60%
    01:00 +25°C° 0 mm 1 mps 758 mmHg 59%
    02:00 +24°C° 0 mm 1 mps 758 mmHg 59%
    03:00 +24°C° 0 mm 1 mps 758 mmHg 59%
    04:00 +24°C° 0 mm 1 mps 758 mmHg 60%
    05:00 +26°C° 0 mm 1 mps 759 mmHg 55%
    06:00 +28°C° 0 mm 1 mps 759 mmHg 50%
    07:00 +30°C° 0 mm 1 mps 759 mmHg 45%
    08:00 +32°C° 0 mm 1 mps 759 mmHg 40%
    09:00 +34°C° 0 mm 1 mps 759 mmHg 35%
    10:00 +37°C° 0 mm 2 mps 759 mmHg 31%
    11:00 +38°C° 0 mm 2 mps 759 mmHg 29%
    12:00 +38°C° 0 mm 3 mps 759 mmHg 27%
    13:00 +40°C° 0 mm 4 mps 759 mmHg 26%
    14:00 +38°C° 0 mm 4 mps 758 mmHg 28%
    15:00 +38°C° 0 mm 4 mps 758 mmHg 30%
    16:00 +37°C° 0 mm 4 mps 758 mmHg 32%
    17:00 +35°C° 0 mm 3 mps 758 mmHg 39%
    18:00 +31°C° 0 mm 3 mps 758 mmHg 47%
    19:00 +29°C° 0 mm 2 mps 758 mmHg 54%
    20:00 +28°C° 0 mm 2 mps 759 mmHg 55%
    21:00 +28°C° 0 mm 1 mps 759 mmHg 55%
    22:00 +27°C° 0 mm 1 mps 759 mmHg 56%
    23:00 +27°C° 0 mm 1 mps 759 mmHg 55%

    Tomorrow, 22 July, Saturday

    Time Temperature Precipitation Wind Pressure Humidity
    00:00 +27°C° 0 mm 1 mps 759 mmHg 54%
    01:00 +27°C° 0 mm 1 mps 759 mmHg 53%
    02:00 +26°C° 0 mm 1 mps 759 mmHg 53%
    03:00 +26°C° 0 mm 1 mps 759 mmHg 52%
    04:00 +26°C° 0 mm 1 mps 759 mmHg 52%
    05:00 +28°C° 0 mm 1 mps 759 mmHg 48%
    06:00 +30°C° 0 mm 1 mps 760 mmHg 44%
    07:00 +32°C° 0 mm 1 mps 760 mmHg 40%
    08:00 +35°C° 0 mm 2 mps 760 mmHg 36%
    09:00 +36°C° 0 mm 2 mps 760 mmHg 33%
    10:00 +38°C° 0 mm 2 mps 760 mmHg 29%
    11:00 +39°C° 0 mm 2 mps 760 mmHg 27%
    12:00 +40°C° 0 mm 3 mps 760 mmHg 25%
    13:00 +40°C° 0 mm 3 mps 759 mmHg 24%
    14:00 +40°C° 0 mm 3 mps 759 mmHg 25%
    15:00 +39°C° 0 mm 3 mps 759 mmHg 25%
    16:00 +38°C° 0 mm 3 mps 759 mmHg 26%
    17:00 +36°C° 0 mm 2 mps 759 mmHg 32%
    18:00 +32°C° 0 mm 1 mps 759 mmHg 37%
    19:00 +30°C° 0 mm 1 mps 759 mmHg 42%
    20:00 +29°C° 0 mm 1 mps 759 mmHg 42%
    21:00 +29°C° 0 mm 1 mps 760 mmHg 42%
    22:00 +28°C° 0 mm 2 mps 760 mmHg 42%
    23:00 +28°C° 0 mm 2 mps 760 mmHg 42%

    Day after tomorrow, 23 July, Sunday

    Time Temperature Precipitation Wind Pressure Humidity
    00:00 +27°C° 0 mm 2 mps 760 mmHg 41%
    01:00 +27°C° 0 mm 1 mps 760 mmHg 41%
    02:00 +27°C° 0 mm 2 mps 759 mmHg 41%
    03:00 +27°C° 0 mm 2 mps 759 mmHg 41%
    04:00 +26°C° 0 mm 2 mps 759 mmHg 41%
    05:00 +29°C° 0 mm 2 mps 759 mmHg 38%
    06:00 +31°C° 0 mm 1 mps 759 mmHg 36%
    07:00 +33°C° 0 mm 1 mps 759 mmHg 33%
    08:00 +34°C° 0 mm 1 mps 759 mmHg 30%
    09:00 +37°C° 0 mm 2 mps 759 mmHg 27%
    10:00 +39°C° 0 mm 2 mps 759 mmHg 25%
    11:00 +39°C° 0 mm 3 mps 759 mmHg 24%
    12:00 +40°C° 0 mm 3 mps 758 mmHg 23%
    13:00 +41°C° 0 mm 4 mps 758 mmHg 22%
    14:00 +41°C° 0 mm 4 mps 758 mmHg 23%
    15:00 +40°C° 0 mm 4 mps 758 mmHg 25%
    16:00 +40°C° 0 mm 4 mps 757 mmHg 26%
    17:00 +36°C° 0 mm 4 mps 757 mmHg 32%
    18:00 +33°C° 0 mm 3 mps 758 mmHg 39%
    19:00 +30°C° 0 mm 3 mps 758 mmHg 45%
    20:00 +29°C° 0 mm 3 mps 758 mmHg 47%
    21:00 +28°C° 0 mm 2 mps 758 mmHg 48%
    22:00 +27°C° 0 mm 2 mps 758 mmHg 49%
    23:00 +27°C° 0 mm 2 mps 758 mmHg 48%

    24 July, Monday

    Time Temperature Precipitation Wind Pressure Humidity
    00:00 +26°C° 0 mm 2 mps 758 mmHg 48%
    01:00 +26°C° 0 mm 1 mps 758 mmHg 47%
    02:00 +26°C° 0 mm 1 mps 757 mmHg 47%
    03:00 +26°C° 0 mm 2 mps 757 mmHg 47%
    04:00 +25°C° 0 mm 2 mps 757 mmHg 47%
    05:00 +27°C° 0 mm 2 mps 757 mmHg 43%
    06:00 +29°C° 0 mm 1 mps 757 mmHg 39%
    07:00 +31°C° 0 mm 1 mps 757 mmHg 36%
    08:00 +33°C° 0 mm 1 mps 756 mmHg 31%
    09:00 +36°C° 0 mm 2 mps 756 mmHg 27%
    10:00 +38°C° 0 mm 2 mps 756 mmHg 23%
    11:00 +39°C° 0 mm 2 mps 755 mmHg 22%
    12:00 +40°C° 0 mm 3 mps 755 mmHg 21%
    13:00 +42°C° 0 mm 3 mps 754 mmHg 20%
    14:00 +40°C° 0 mm 3 mps 754 mmHg 21%
    15:00 +40°C° 0 mm 3 mps 753 mmHg 22%
    16:00 +40°C° 0 mm 2 mps 753 mmHg 23%
    17:00 +37°C° 0 mm 2 mps 753 mmHg 29%
    18:00 +34°C° 0 mm 3 mps 753 mmHg 35%
    19:00 +31°C° 0 mm 3 mps 753 mmHg 40%
    20:00 +30°C° 0 mm 4 mps 752 mmHg 42%
    21:00 +29°C° 0 mm 5 mps 752 mmHg 43%
    22:00 +28°C° 0 mm 6 mps 752 mmHg 44%
    23:00 +28°C° 0 mm 6 mps 752 mmHg 44%

    25 July, Tuesday

    Time Temperature Precipitation Wind Pressure Humidity
    00:00 +27°C° 0 mm 6 mps 752 mmHg 44%
    01:00 +27°C° 0 mm 6 mps 752 mmHg 44%
    02:00 +27°C° 0 mm 6 mps 752 mmHg 45%
    03:00 +26°C° 0 mm 5 mps 752 mmHg 45%
    04:00 +26°C° 0 mm 5 mps 752 mmHg 45%
    05:00 +27°C° 0 mm 5 mps 752 mmHg 46%
    06:00 +28°C° 0 mm 4 mps 752 mmHg 47%
    07:00 +30°C° 0 mm 4 mps 752 mmHg 48%
    08:00 +32°C° 0 mm 4 mps 752 mmHg 43%
    09:00 +34°C° 0 mm 4 mps 752 mmHg 39%
    10:00 +35°C° 0 mm 5 mps 752 mmHg 35%
    11:00 +35°C° 0 mm 5 mps 752 mmHg 35%
    12:00 +36°C° 0 mm 5 mps 751 mmHg 36%
    13:00 +36°C° 0 mm 5 mps 751 mmHg 36%
    14:00 +35°C° 0 mm 4 mps 751 mmHg 40%
    15:00 +35°C° 0 mm 4 mps 751 mmHg 44%
    16:00 +34°C° 0 mm 3 mps 751 mmHg 48%
    17:00 +31°C° 0 mm 2 mps 752 mmHg 53%
    18:00 +29°C° 0 mm 2 mps 752 mmHg 59%
    19:00 +27°C° 0 mm 2 mps 752 mmHg 65%
    20:00 +26°C° 0 mm 2 mps 752 mmHg 70%
    21:00 +25°C° 0 mm 2 mps 753 mmHg 74%
    22:00 +24°C° 0 mm 2 mps 753 mmHg 78%
    23:00 +24°C° 0 mm 2 mps 753 mmHg 77%

    26 July, Wednesday

    Time Temperature Precipitation Wind Pressure Humidity
    00:00 +24°C° 0 mm 2 mps 753 mmHg 76%
    01:00 +24°C° 0 mm 2 mps 753 mmHg 75%
    02:00 +23°C° 0 mm 2 mps 753 mmHg 74%
    03:00 +23°C° 0 mm 2 mps 753 mmHg 73%
    04:00 +23°C° 0 mm 2 mps 753 mmHg 71%
    05:00 +25°C° 0 mm 2 mps 753 mmHg 64%
    06:00 +27°C° 0 mm 2 mps 753 mmHg 57%
    07:00 +29°C° 0 mm 2 mps 753 mmHg 49%
    08:00 +30°C° 0 mm 2 mps 753 mmHg 45%
    09:00 +33°C° 0 mm 3 mps 753 mmHg 40%
    10:00 +34°C° 0 mm 3 mps 753 mmHg 36%
    11:00 +35°C° 0 mm 3 mps 753 mmHg 36%
    12:00 +35°C° 0 mm 4 mps 753 mmHg 35%
    13:00 +35°C° 0 mm 4 mps 753 mmHg 35%
    14:00 +35°C° 0 mm 4 mps 753 mmHg 38%
    15:00 +34°C° 0 mm 4 mps 753 mmHg 41%
    16:00 +34°C° 0 mm 4 mps 753 mmHg 44%
    17:00 +32°C° 0 mm 4 mps 753 mmHg 52%
    18:00 +29°C° 0 mm 3 mps 754 mmHg 59%
    19:00 +27°C° 0 mm 3 mps 754 mmHg 66%
    20:00 +26°C° 0 mm 3 mps 754 mmHg 70%
    21:00 +25°C° 0 mm 2 mps 755 mmHg 75%
    22:00 +24°C° 0 mm 2 mps 755 mmHg 79%
    23:00 +23°C° 0 mm 2 mps 755 mmHg 79%
    Show more